[[{"header":{"parameterUnit":"m.s-1","parameterCategory":2,"la1":30.2991,"la2":30.254,"lo1":-89.0895,"lo2":-89.0444,"dy":0.0017,"dx":0.0017,"nx":28,"ny":28,"refTime":"2024-04-29T21:00:00:Z","depth":"0","parameterNumber":2,"parameterNumberName":"U-component_of_CURRENTS"},"data":[0,0,0,0,0,0,0,0,0,0,0,0,0,0,0,0,0,0,0,0,0,0,0,0,0,0,0,0,0,0,0,0,0,0,0,0,0,0,0,0,0,0,0,0,0,0,0,0,0,0,0,0,0,0,0,0,0,0,0.2845,0.2846,0,0.2931,0.2931,0.2932,0.3032,0.3034,0.3036,0.3038,0.3099,0.3098,0.3098,0,0,0,0,0,0,0,0,0,0,0,0,0,0.2733,0.2734,0.2845,0.2847,0.2848,0.2931,0.2931,0.2932,0.3032,0.3034,0.3037,0.3039,0.3099,0.3099,0.3098,0,0,0,0,0,0,0,0,0,0,0,0,0,0.2792,0.2735,0.2845,0.2912,0.2919,0.2931,0.2932,0.2932,0.3031,0.3034,0.3037,0.304,0.3099,0.3099,0.3098,0.3037,0,0,0.3097,0.3097,0,0,0,0,0,0,0,0,0.2788,0.2795,0.29,0.2907,0.2915,0.2978,0.2915,0.2968,0.3031,0.2983,0.3038,0.3042,0.3057,0.306,0.3063,0.3039,0.3042,0.3097,0.3097,0.3097,0.3097,0,0,0,0,0,0,0,0.2784,0.2792,0.2874,0.2902,0.2911,0.2926,0.2937,0.2925,0.2998,0.2988,0.2996,0.3013,0.3061,0.3063,0.3065,0.3043,0.3097,0.3097,0.3097,0.3096,0.3063,0.3062,0,0,0,0,0,0,0.2782,0.2788,0.2871,0.2877,0.2863,0.2926,0.2938,0.2951,0.2999,0.3011,0.301,0.3017,0.3062,0.3066,0.3068,0.3074,0.3097,0.3096,0.3096,0.3064,0.3063,0.3062,0,0,0,0,0,0,0.2779,0.2788,0.2868,0.2839,0.2851,0.2925,0.2938,0.2951,0.297,0.3018,0.3029,0.3019,0.3065,0.3068,0.3074,0.3074,0.3096,0.3096,0.3064,0.3063,0.3062,0.3037,0,0,0,0,0,0,0.2775,0.2787,0.2777,0.2838,0.2853,0.2877,0.2936,0.2951,0.2977,0.2987,0.3027,0.3036,0.3067,0.3074,0.3073,0.3074,0.3096,0.3065,0.3064,0.3063,0.3038,0.3035,0.3032,0,0,0,0,0,0.2771,0.2741,0.2775,0.2785,0.2842,0.2876,0.2883,0.2943,0.2974,0.2972,0.3009,0.3035,0.3066,0.3072,0.3072,0.3073,0.3066,0.3064,0.3063,0.304,0.3035,0.3032,0,0,0,0,0,0,0.2655,0.2751,0.279,0.2782,0.2832,0.2896,0.2889,0.2934,0.2957,0.2966,0.3015,0.3024,0.3036,0.3044,0.305,0.3059,0.3073,0.3071,0.3056,0.3052,0.3049,0.3105,0.3095,0,0,0,0,0,0.2633,0.2656,0.2736,0.2726,0.275,0.2817,0.2833,0.288,0.292,0.2935,0.2968,0.2997,0.3021,0.303,0.3045,0.3031,0.3097,0.3034,0.303,0.3028,0.3072,0.3146,0.3155,0.3057,0.3057,0.3057,0,0,0.258,0.2637,0.2645,0.2707,0.2746,0.2789,0.2833,0.2855,0.2898,0.2931,0.2966,0.298,0.3014,0.3023,0.3027,0.3034,0.3088,0.3026,0.3023,0.3071,0.3145,0.3156,0.3165,0.3056,0.3056,0.3056,0,0,0.2525,0.2543,0.2571,0.2614,0.2688,0.2735,0.2744,0.2812,0.2847,0.2869,0.292,0.2943,0.2953,0.3002,0.3023,0.3002,0.3068,0.2989,0.3018,0.3087,0.3097,0.3107,0.3202,0.3221,0.2986,0.2986,0.2986,0,0.2463,0.2526,0.2571,0.2618,0.2661,0.2717,0.2763,0.279,0.2852,0.2884,0.2879,0.2947,0.2959,0.3022,0.3024,0.3001,0.3061,0.3029,0.3087,0.3098,0.3109,0.3204,0.3225,0.2985,0.2985,0.2985,0.2985,0,0.2468,0.2511,0.2516,0.2621,0.2652,0.2685,0.2758,0.278,0.2817,0.2867,0.2917,0.2937,0.2999,0.2983,0.3,0.3075,0.3101,0.3076,0.3105,0.3118,0.3216,0.3239,0.2983,0.2983,0.2984,0.2984,0,0,0.238,0.2505,0.2515,0.2579,0.2668,0.2701,0.2747,0.283,0.2894,0.2906,0.2991,0.3007,0.3034,0.3063,0.3078,0.313,0.3236,0.3136,0.3141,0.3248,0.3422,0.3409,0.3432,0.3218,0.3222,0.3224,0.3462,0,0.2393,0.2487,0.2549,0.263,0.2691,0.275,0.2803,0.2867,0.2923,0.2999,0.3024,0.3095,0.306,0.3099,0.3142,0.3225,0.3294,0.3177,0.3383,0.3391,0.3389,0.3457,0.3335,0.3534,0.3484,0.3488,0.3491,0,0.242,0.2489,0.2577,0.2695,0.2724,0.2769,0.2885,0.2943,0.3042,0.3083,0.3145,0.3184,0.3277,0.3229,0.3395,0.3323,0.3389,0.3434,0.3443,0.3468,0.3419,0.3512,0.3577,0.3506,0.3526,0.3523,0.3521,0,0.2401,0.2516,0.2594,0.2631,0.2756,0.2799,0.2861,0.2966,0.3031,0.3156,0.3222,0.3315,0.34,0.3469,0.3562,0.3494,0.3754,0.3664,0.3722,0.3723,0.3685,0.3675,0.3724,0.3801,0.38,0.38,0.3799,0,0.2427,0.249,0.2591,0.2636,0.2717,0.2803,0.29,0.2975,0.3097,0.32,0.3273,0.3387,0.3467,0.3605,0.3642,0.3783,0.3826,0.3782,0.3795,0.3668,0.3655,0.3642,0.359,0.3809,0.3807,0.3805,0.3803,0,0.2417,0.2488,0.2574,0.2688,0.2718,0.2775,0.2895,0.2978,0.3102,0.3245,0.3291,0.3483,0.3682,0.3774,0.3946,0.3918,0.3929,0.4061,0.3925,0.3916,0.3827,0.3777,0.3732,0.3619,0.4147,0.4149,0.415,0,0.2428,0.2476,0.2577,0.2619,0.2673,0.2759,0.2828,0.2954,0.3054,0.3308,0.339,0.3634,0.3789,0.4047,0.4084,0.419,0.4043,0.4118,0.3942,0.3859,0.3813,0.3612,0.3503,0.3891,0.389,0.3889,0.3888,0,0.2439,0.2469,0.2529,0.2605,0.2676,0.2745,0.2858,0.292,0.3107,0.3251,0.3484,0.3629,0.3911,0.3989,0.4138,0.416,0.3911,0.4099,0.4046,0.3667,0.3422,0.3306,0.372,0.3879,0.388,0.3881,0.3881,0.3882,0.2425,0.2453,0.2521,0.2592,0.266,0.2725,0.2757,0.2903,0.3037,0.3243,0.3452,0.3637,0.3829,0.402,0.4026,0.3971,0.3892,0.3852,0.3824,0.3647,0.3444,0.3859,0.3993,0.3994,0.3996,0.3997,0.3998,0,0.2414,0.2451,0.251,0.2576,0.2618,0.2672,0.2777,0.2805,0.2934,0.3172,0.3354,0.3545,0.365,0.3761,0.382,0.3717,0.3479,0.3632,0.332,0.3243,0.3674,0.3568,0.3574,0.3574,0.3574,0.3574,0.3574,0.3575,0.2411,0.2449,0.2479,0.2517,0.2558,0.2571,0.2604,0.2666,0.2796,0.2963,0.3095,0.3249,0.3486,0.366,0.3623,0.3529,0.3252,0.3123,0.3092,0.3415,0.3431,0.3446,0.3334,0.3291,0.3291,0.2506,0.2501,0.2497]},{"header":{"parameterUnit":"m.s-1","parameterCategory":2,"la1":30.2991,"la2":30.254,"lo1":-89.0895,"lo2":-89.0444,"dy":0.0017,"dx":0.0017,"nx":28,"ny":28,"refTime":"2024-04-29T21:00:00:Z","depth":"0","parameterNumber":3,"parameterNumberName":"V-component_of_CURRENTS"},"data":[0,0,0,0,0,0,0,0,0,0,0,0,0,0,0,0,0,0,0,0,0,0,0,0,0,0,0,0,0,0,0,0,0,0,0,0,0,0,0,0,0,0,0,0,0,0,0,0,0,0,0,0,0,0,0,0,0,0,-0.0396,-0.0396,0,-0.0435,-0.0435,-0.0436,-0.0442,-0.0442,-0.0442,-0.0442,-0.0491,-0.0493,-0.0494,0,0,0,0,0,0,0,0,0,0,0,0,0,-0.0377,-0.0377,-0.0396,-0.0396,-0.0397,-0.0435,-0.0435,-0.0436,-0.0442,-0.0442,-0.0442,-0.0442,-0.0491,-0.0493,-0.0494,0,0,0,0,0,0,0,0,0,0,0,0,0,-0.0395,-0.0377,-0.0396,-0.0407,-0.0408,-0.0435,-0.0435,-0.0436,-0.0442,-0.0442,-0.0442,-0.0442,-0.049,-0.0492,-0.0495,-0.0511,0,0,-0.0501,-0.0502,0,0,0,0,0,0,0,0,-0.0394,-0.0395,-0.0404,-0.0406,-0.0408,-0.0436,-0.0447,-0.0462,-0.0442,-0.0427,-0.0442,-0.0441,-0.0475,-0.0479,-0.0483,-0.0514,-0.0516,-0.0501,-0.0503,-0.0504,-0.0504,0,0,0,0,0,0,0,-0.0393,-0.0394,-0.0409,-0.0405,-0.0407,-0.0427,-0.0429,-0.045,-0.045,-0.0428,-0.0429,-0.0437,-0.0476,-0.0481,-0.0484,-0.0517,-0.0501,-0.0503,-0.0505,-0.0505,-0.0571,-0.0571,0,0,0,0,0,0,-0.039,-0.0393,-0.0408,-0.041,-0.0403,-0.0428,-0.043,-0.0425,-0.0449,-0.0454,-0.0438,-0.0438,-0.0477,-0.0482,-0.0486,-0.0494,-0.0504,-0.0506,-0.0507,-0.057,-0.0571,-0.0571,0,0,0,0,0,0,-0.0389,-0.0391,-0.0406,-0.0405,-0.0409,-0.0428,-0.0423,-0.0426,-0.043,-0.0457,-0.0461,-0.0439,-0.0477,-0.0483,-0.051,-0.0497,-0.0507,-0.0508,-0.057,-0.057,-0.0571,-0.0519,0,0,0,0,0,0,-0.0388,-0.039,-0.0383,-0.0404,-0.0409,-0.042,-0.0424,-0.0427,-0.0436,-0.0437,-0.046,-0.0464,-0.0478,-0.0507,-0.0512,-0.05,-0.051,-0.0569,-0.057,-0.0571,-0.052,-0.0518,-0.0515,0,0,0,0,0,-0.0387,-0.0375,-0.0382,-0.0384,-0.0399,-0.0421,-0.0424,-0.0437,-0.0437,-0.0439,-0.0459,-0.0463,-0.0516,-0.0509,-0.0516,-0.0503,-0.0569,-0.057,-0.0571,-0.0521,-0.0518,-0.0516,0,0,0,0,0,0,-0.0358,-0.0376,-0.0383,-0.0375,-0.0398,-0.0423,-0.0422,-0.0436,-0.0452,-0.0448,-0.0473,-0.0479,-0.0497,-0.0516,-0.0508,-0.0527,-0.0541,-0.0544,-0.0501,-0.0499,-0.0497,-0.0471,-0.0512,0,0,0,0,0,-0.035,-0.0348,-0.0374,-0.0369,-0.0376,-0.04,-0.0409,-0.0419,-0.0439,-0.0445,-0.0467,-0.0488,-0.0506,-0.0515,-0.0537,-0.055,-0.0556,-0.0548,-0.0545,-0.0543,-0.0528,-0.0548,-0.0545,-0.0575,-0.0575,-0.0575,0,0,-0.0338,-0.0348,-0.0346,-0.0363,-0.0377,-0.0372,-0.0403,-0.0412,-0.0406,-0.0449,-0.0449,-0.0484,-0.0511,-0.0523,-0.0531,-0.0535,-0.0536,-0.0544,-0.0542,-0.0528,-0.0548,-0.0545,-0.0542,-0.0575,-0.0575,-0.0575,0,0,-0.0306,-0.032,-0.0303,-0.0318,-0.0339,-0.0354,-0.0356,-0.0383,-0.0392,-0.041,-0.0434,-0.0467,-0.0494,-0.0512,-0.0523,-0.0526,-0.0526,-0.053,-0.0491,-0.051,-0.0507,-0.0505,-0.049,-0.0487,-0.0525,-0.0524,-0.0524,0,-0.0286,-0.0268,-0.0304,-0.0292,-0.0291,-0.034,-0.0316,-0.0337,-0.0371,-0.0373,-0.0402,-0.045,-0.0486,-0.0489,-0.0493,-0.0518,-0.0515,-0.0494,-0.0504,-0.0502,-0.0501,-0.0487,-0.0484,-0.0522,-0.0522,-0.0523,-0.0523,0,-0.0239,-0.0227,-0.022,-0.0215,-0.0223,-0.0217,-0.0247,-0.0259,-0.0284,-0.0304,-0.033,-0.0395,-0.0416,-0.0442,-0.0468,-0.047,-0.0466,-0.05,-0.0503,-0.0494,-0.0481,-0.0478,-0.0519,-0.052,-0.052,-0.0521,0,0,-0.0167,-0.0182,-0.0174,-0.0159,-0.0177,-0.0175,-0.017,-0.0175,-0.0156,-0.0223,-0.0204,-0.0281,-0.0321,-0.0337,-0.0387,-0.0418,-0.0415,-0.0446,-0.0448,-0.0416,-0.0422,-0.0396,-0.0391,-0.0445,-0.0445,-0.0445,-0.041,0,-0.0108,-0.0068,-0.0091,-0.0048,-0.0025,-0.0066,-0.0053,-0.0068,-0.0093,-0.0094,-0.0176,-0.019,-0.0277,-0.0288,-0.0332,-0.0388,-0.0409,-0.0419,-0.0449,-0.0449,-0.0415,-0.0388,-0.0357,-0.0322,-0.0408,-0.0408,-0.0407,0,-0.0033,-0.0019,0.0035,0.0045,0.0053,0.0072,0.0095,0.0096,0.0072,0.0052,0.0011,-0.0051,-0.0103,-0.0189,-0.0273,-0.0269,-0.0335,-0.0394,-0.0395,-0.0384,-0.0419,-0.0351,-0.0315,-0.0512,-0.0404,-0.0404,-0.0405,0,0.0055,0.0077,0.0125,0.0129,0.0131,0.0155,0.016,0.0152,0.0176,0.015,0.0173,0.008,0.0067,-0.0052,-0.0176,-0.0218,-0.0255,-0.0332,-0.0369,-0.0367,-0.0353,-0.035,-0.0497,-0.0391,-0.0391,-0.0391,-0.0391,0,0.0136,0.0174,0.0171,0.0199,0.0265,0.0239,0.0308,0.0296,0.0311,0.0378,0.026,0.0304,0.01,0.0047,-0.0104,-0.0197,-0.0195,-0.0341,-0.0355,-0.0333,-0.0329,-0.0511,-0.0622,-0.039,-0.039,-0.039,-0.0391,0,0.022,0.0218,0.0273,0.0292,0.0309,0.0358,0.0406,0.0458,0.0457,0.0548,0.0548,0.0495,0.0438,0.0248,0.0089,-0.0064,-0.0287,-0.0232,-0.0173,-0.0182,-0.043,-0.0537,-0.0658,-0.0753,-0.0276,-0.0275,-0.0274,0,0.0262,0.0301,0.0351,0.0399,0.0414,0.0476,0.0533,0.0537,0.0606,0.0688,0.0756,0.0724,0.0748,0.0531,0.0245,0.0013,-0.0204,-0.0134,-0.0238,-0.0418,-0.055,-0.0637,-0.0717,-0.0193,-0.0192,-0.0191,-0.019,0,0.0342,0.0361,0.0404,0.0504,0.0576,0.0654,0.0738,0.0815,0.0862,0.0966,0.1114,0.1143,0.0946,0.0734,0.0388,0.0197,-0.0268,-0.0118,-0.0333,-0.051,-0.0586,-0.0691,-0.0226,-0.018,-0.0181,-0.0182,-0.0182,-0.0183,0.0404,0.0452,0.0517,0.0616,0.0707,0.0837,0.0933,0.1048,0.1204,0.14,0.1409,0.1536,0.1167,0.0708,0.0402,-0.0152,-0.0191,-0.0343,-0.0456,-0.0526,-0.0635,-0.0126,-0.0089,-0.0089,-0.009,-0.009,-0.009,0,0.0478,0.0533,0.0627,0.0752,0.0879,0.0904,0.1079,0.1206,0.1436,0.1642,0.1803,0.1745,0.1272,0.0748,0.0001,-0.042,-0.0615,-0.0659,-0.0812,-0.088,-0.0443,-0.0461,-0.0468,-0.0468,-0.0467,-0.0467,-0.0467,-0.0467,0.0523,0.0619,0.0666,0.0882,0.0982,0.1169,0.1285,0.1493,0.1675,0.1982,0.2115,0.2162,0.176,0.0394,-0.0572,-0.0807,-0.1129,-0.1169,-0.1356,-0.1104,-0.1085,-0.1067,-0.1113,-0.1256,-0.1257,-0.175,-0.1755,-0.1759]}],[{"header":{"parameterUnit":"m.s-1","parameterCategory":2,"la1":30.2991,"la2":30.254,"lo1":-89.0895,"lo2":-89.0444,"dy":0.0017,"dx":0.0017,"nx":28,"ny":28,"refTime":"2024-04-29T21:00:00:Z","depth":"2","parameterNumber":2,"parameterNumberName":"U-component_of_CURRENTS"},"data":[0,0,0,0,0,0,0,0,0,0,0,0,0,0,0,0,0,0,0,0,0,0,0,0,0,0,0,0,0,0,0,0,0,0,0,0,0,0,0,0,0,0,0,0,0,0,0,0,0,0,0,0,0,0,0,0,0,0,0.2727,0.2726,0,0.2689,0.2688,0.2688,0.2754,0.2757,0.2759,0.2761,0.2743,0.2741,0.2738,0,0,0,0,0,0,0,0,0,0,0,0,0,0.2704,0.2705,0.2727,0.2726,0.2726,0.2689,0.2688,0.2688,0.2754,0.2757,0.276,0.2762,0.2744,0.2741,0.2738,0,0,0,0,0,0,0,0,0,0,0,0,0,0.2693,0.2705,0.2727,0.2756,0.2759,0.2689,0.2688,0.2688,0.2753,0.2757,0.276,0.2764,0.2745,0.2741,0.2737,0.2638,0,0,0.2725,0.2723,0,0,0,0,0,0,0,0,0.2694,0.2694,0.2752,0.2754,0.2757,0.2732,0.2674,0.2673,0.2752,0.2753,0.2761,0.2766,0.274,0.2737,0.2718,0.2637,0.2637,0.2724,0.2722,0.272,0.2719,0,0,0,0,0,0,0,0.2695,0.2695,0.2709,0.2752,0.2754,0.272,0.2724,0.2673,0.2725,0.2753,0.2758,0.2757,0.2742,0.2722,0.2718,0.2636,0.2724,0.2721,0.2718,0.2717,0.2687,0.2689,0,0,0,0,0,0,0.2708,0.2696,0.2711,0.2708,0.2736,0.2718,0.2722,0.2734,0.2725,0.2728,0.2754,0.276,0.2727,0.2723,0.2718,0.276,0.272,0.2716,0.2714,0.2686,0.2688,0.2689,0,0,0,0,0,0,0.2708,0.271,0.2712,0.2702,0.2701,0.2716,0.2728,0.2732,0.2741,0.2726,0.2729,0.2764,0.273,0.2724,0.2727,0.2754,0.2714,0.2711,0.2684,0.2686,0.2689,0.2741,0,0,0,0,0,0,0.2707,0.271,0.2714,0.2704,0.2702,0.2711,0.2725,0.2728,0.2733,0.2742,0.2734,0.2735,0.2732,0.2733,0.2723,0.2748,0.2707,0.2681,0.2685,0.2688,0.2737,0.2745,0.2752,0,0,0,0,0,0.2707,0.2689,0.2715,0.2716,0.2711,0.2711,0.2707,0.2727,0.2731,0.2745,0.275,0.2737,0.2748,0.273,0.2717,0.2742,0.268,0.2684,0.2687,0.2734,0.2743,0.2751,0,0,0,0,0,0,0.2646,0.2694,0.2723,0.2713,0.2736,0.2725,0.271,0.2726,0.2731,0.2743,0.2731,0.2732,0.2763,0.2733,0.2714,0.2749,0.272,0.2721,0.276,0.2768,0.2775,0.279,0.2704,0,0,0,0,0,0.2643,0.2662,0.2699,0.2686,0.2699,0.2706,0.2701,0.2732,0.2735,0.2741,0.2744,0.2747,0.2756,0.275,0.2758,0.2733,0.2743,0.2753,0.276,0.2766,0.2773,0.2816,0.2828,0.2702,0.2702,0.2702,0,0,0.2601,0.2635,0.2637,0.2678,0.2682,0.2711,0.2713,0.2723,0.2752,0.2732,0.2758,0.2772,0.2762,0.2783,0.279,0.2762,0.281,0.2771,0.2776,0.278,0.2822,0.2834,0.2845,0.2705,0.2704,0.2704,0,0,0.2552,0.2574,0.2597,0.263,0.2677,0.2696,0.2709,0.2737,0.276,0.2773,0.28,0.283,0.2803,0.2834,0.2831,0.2867,0.2863,0.2876,0.2898,0.294,0.2951,0.296,0.2998,0.301,0.2861,0.2861,0.2861,0,0.2504,0.2556,0.2592,0.2635,0.2655,0.2698,0.273,0.2746,0.278,0.2792,0.2799,0.283,0.2829,0.2864,0.2902,0.2883,0.2908,0.2861,0.295,0.2959,0.2968,0.3004,0.3017,0.2864,0.2864,0.2863,0.2863,0,0.2508,0.2547,0.2548,0.264,0.2664,0.2689,0.2745,0.2775,0.2796,0.2822,0.2872,0.2887,0.2913,0.2923,0.2916,0.2987,0.2987,0.2969,0.2924,0.2983,0.3018,0.3031,0.2868,0.2867,0.2866,0.2865,0,0,0.2422,0.2534,0.2542,0.2596,0.268,0.2702,0.2741,0.2795,0.2828,0.2867,0.2915,0.2942,0.2975,0.2979,0.2999,0.3027,0.3116,0.3027,0.3028,0.306,0.3219,0.3164,0.3172,0.3118,0.312,0.3122,0.3222,0,0.2425,0.2513,0.2563,0.2629,0.2682,0.2728,0.2764,0.2817,0.2853,0.2917,0.2948,0.3006,0.2989,0.3028,0.3059,0.3118,0.3151,0.3091,0.3161,0.3163,0.3103,0.3185,0.2959,0.3024,0.3234,0.3236,0.3237,0,0.2449,0.2512,0.2584,0.2671,0.2692,0.2728,0.28,0.2844,0.2925,0.2951,0.3008,0.3058,0.3138,0.3117,0.3212,0.318,0.3211,0.3233,0.3237,0.3174,0.3131,0.2998,0.3039,0.3258,0.3256,0.3255,0.3253,0,0.2437,0.2528,0.2589,0.2622,0.2721,0.274,0.2785,0.2853,0.2895,0.3,0.3052,0.3133,0.3221,0.3251,0.3302,0.3275,0.3405,0.3365,0.3337,0.3333,0.3148,0.3123,0.3433,0.3433,0.3433,0.3433,0.3432,0,0.2455,0.2504,0.259,0.263,0.2688,0.2751,0.2815,0.2854,0.2945,0.3013,0.309,0.3155,0.3267,0.3348,0.3349,0.3391,0.344,0.3367,0.3364,0.3161,0.3137,0.3335,0.3323,0.3436,0.3435,0.3435,0.3434,0,0.2451,0.2512,0.2583,0.267,0.2694,0.2739,0.2827,0.2878,0.2955,0.3057,0.3102,0.3228,0.3325,0.3404,0.3496,0.3469,0.3489,0.3485,0.3244,0.3211,0.3377,0.3366,0.347,0.3469,0.3468,0.3468,0.3467,0,0.2463,0.2506,0.2596,0.2633,0.2671,0.2746,0.2799,0.2876,0.2933,0.3066,0.3118,0.3266,0.3319,0.3435,0.3451,0.3472,0.3502,0.3263,0.3159,0.3399,0.3386,0.3376,0.3366,0.294,0.2936,0.2932,0.2929,0,0.2473,0.2501,0.2551,0.2627,0.2682,0.2742,0.282,0.2854,0.2959,0.3001,0.3063,0.3107,0.3275,0.3209,0.3286,0.3245,0.3237,0.3184,0.3513,0.2963,0.2907,0.2891,0.2898,0.2893,0.2897,0.2899,0.2901,0.2903,0.2461,0.2486,0.2546,0.2607,0.2667,0.2704,0.2678,0.2753,0.277,0.2783,0.2929,0.2902,0.3005,0.2986,0.2908,0.2888,0.3099,0.2958,0.2967,0.2981,0.29,0.2844,0.2804,0.2807,0.281,0.2812,0.2814,0,0.2431,0.2469,0.2526,0.2551,0.2531,0.2611,0.2656,0.2571,0.2501,0.2611,0.2611,0.2458,0.2447,0.2527,0.2465,0.2491,0.2429,0.2372,0.2272,0.2312,0.2347,0.2227,0.1957,0.1953,0.195,0.1947,0,0,0.2418,0.2434,0.2457,0.2397,0.2397,0.2318,0.2292,0.2198,0.2216,0.2122,0.2114,0.2321,0.2466,0.2167,0.2163,0.2043,0.2136,0.196,0.2665,0.2589,0.2618,0.2728,0.2596,0,0,0,0,0]},{"header":{"parameterUnit":"m.s-1","parameterCategory":2,"la1":30.2991,"la2":30.254,"lo1":-89.0895,"lo2":-89.0444,"dy":0.0017,"dx":0.0017,"nx":28,"ny":28,"refTime":"2024-04-29T21:00:00:Z","depth":"2","parameterNumber":3,"parameterNumberName":"V-component_of_CURRENTS"},"data":[0,0,0,0,0,0,0,0,0,0,0,0,0,0,0,0,0,0,0,0,0,0,0,0,0,0,0,0,0,0,0,0,0,0,0,0,0,0,0,0,0,0,0,0,0,0,0,0,0,0,0,0,0,0,0,0,0,0,-0.0328,-0.0328,0,-0.0286,-0.0286,-0.0285,-0.0318,-0.032,-0.0321,-0.0322,-0.037,-0.037,-0.037,0,0,0,0,0,0,0,0,0,0,0,0,0,-0.0346,-0.0346,-0.0328,-0.0328,-0.0327,-0.0286,-0.0286,-0.0285,-0.0318,-0.032,-0.0321,-0.0322,-0.0369,-0.037,-0.037,0,0,0,0,0,0,0,0,0,0,0,0,0,-0.0328,-0.0347,-0.0329,-0.0336,-0.0335,-0.0286,-0.0286,-0.0285,-0.0318,-0.032,-0.0321,-0.0323,-0.0369,-0.037,-0.037,-0.034,0,0,-0.0371,-0.0371,0,0,0,0,0,0,0,0,-0.0329,-0.0328,-0.0335,-0.0335,-0.0335,-0.0306,-0.0309,-0.0307,-0.0318,-0.0328,-0.0322,-0.0324,-0.0353,-0.0355,-0.0347,-0.0342,-0.0344,-0.0371,-0.0372,-0.0372,-0.0372,0,0,0,0,0,0,0,-0.033,-0.0329,-0.0315,-0.0334,-0.0334,-0.0309,-0.0309,-0.0308,-0.0337,-0.0328,-0.0329,-0.0318,-0.0354,-0.0347,-0.0349,-0.0345,-0.0371,-0.0372,-0.0372,-0.0372,-0.0402,-0.0402,0,0,0,0,0,0,-0.0331,-0.0331,-0.0317,-0.0314,-0.0332,-0.0307,-0.0308,-0.0316,-0.0335,-0.0337,-0.0317,-0.032,-0.0345,-0.0348,-0.0351,-0.0381,-0.0372,-0.0372,-0.0372,-0.0401,-0.0402,-0.0402,0,0,0,0,0,0,-0.0332,-0.0331,-0.0318,-0.0317,-0.0313,-0.0306,-0.0314,-0.0315,-0.0317,-0.0325,-0.033,-0.0319,-0.0346,-0.035,-0.0378,-0.0381,-0.0372,-0.0373,-0.0401,-0.0401,-0.0402,-0.0401,0,0,0,0,0,0,-0.0333,-0.0333,-0.0338,-0.0318,-0.0313,-0.0319,-0.0312,-0.0313,-0.0305,-0.0309,-0.0328,-0.0334,-0.0348,-0.0378,-0.0378,-0.0382,-0.0373,-0.04,-0.0401,-0.0402,-0.04,-0.0401,-0.0403,0,0,0,0,0,-0.0335,-0.0327,-0.0339,-0.0336,-0.0322,-0.032,-0.0317,-0.0317,-0.0304,-0.0321,-0.0332,-0.0334,-0.0385,-0.0378,-0.0379,-0.0382,-0.0399,-0.0401,-0.0402,-0.04,-0.0401,-0.0403,0,0,0,0,0,0,-0.0334,-0.0328,-0.0341,-0.0334,-0.0345,-0.0325,-0.0319,-0.0314,-0.0329,-0.0335,-0.0339,-0.0346,-0.0376,-0.0377,-0.0369,-0.0396,-0.0392,-0.0394,-0.039,-0.0392,-0.0393,-0.0334,-0.0373,0,0,0,0,0,-0.0336,-0.0336,-0.0338,-0.0337,-0.0338,-0.0329,-0.0321,-0.0332,-0.0335,-0.0342,-0.0358,-0.0369,-0.0376,-0.0384,-0.0404,-0.0407,-0.0396,-0.0412,-0.0413,-0.0414,-0.0368,-0.0376,-0.0373,-0.0407,-0.0407,-0.0407,0,0,-0.0329,-0.0329,-0.0326,-0.0337,-0.0335,-0.032,-0.0331,-0.0333,-0.0312,-0.0344,-0.0339,-0.0381,-0.0381,-0.0402,-0.0413,-0.0405,-0.0406,-0.0416,-0.0416,-0.0368,-0.0377,-0.0373,-0.037,-0.0407,-0.0407,-0.0407,0,0,-0.0301,-0.0325,-0.0309,-0.0317,-0.0325,-0.0322,-0.0324,-0.0332,-0.0334,-0.0345,-0.0358,-0.0393,-0.0411,-0.0411,-0.0405,-0.0415,-0.0419,-0.0441,-0.0388,-0.0399,-0.0395,-0.0391,-0.0397,-0.0394,-0.0433,-0.0433,-0.0433,0,-0.029,-0.0273,-0.0306,-0.0292,-0.0275,-0.0318,-0.0289,-0.0291,-0.0312,-0.0295,-0.0353,-0.0367,-0.0398,-0.0363,-0.0386,-0.0413,-0.0423,-0.0383,-0.0398,-0.0394,-0.039,-0.0397,-0.0393,-0.0433,-0.0433,-0.0433,-0.0433,0,-0.0245,-0.0233,-0.0223,-0.0216,-0.022,-0.0209,-0.0219,-0.0232,-0.025,-0.0248,-0.0263,-0.0326,-0.033,-0.0361,-0.0375,-0.036,-0.038,-0.0407,-0.0388,-0.0386,-0.0394,-0.0391,-0.0433,-0.0433,-0.0433,-0.0433,0,0,-0.0189,-0.0186,-0.018,-0.0159,-0.0175,-0.0167,-0.0143,-0.0118,-0.0071,-0.0152,-0.0104,-0.0165,-0.0224,-0.0221,-0.0273,-0.0282,-0.0302,-0.0335,-0.0336,-0.0328,-0.0328,-0.0352,-0.035,-0.0347,-0.0346,-0.0345,-0.0352,0,-0.013,-0.0083,-0.0095,-0.0041,-0.0014,-0.0041,-0.0002,0.0,-0.0013,0.0,-0.0061,-0.0061,-0.0159,-0.0184,-0.0219,-0.0271,-0.0289,-0.0297,-0.0338,-0.0337,-0.035,-0.0345,-0.0315,-0.032,-0.0348,-0.0348,-0.0347,0,-0.0063,-0.004,0.0021,0.0063,0.0076,0.01,0.0154,0.0177,0.0186,0.0176,0.014,0.0076,0.0043,-0.006,-0.0136,-0.0146,-0.0228,-0.0277,-0.028,-0.0283,-0.0353,-0.0322,-0.0312,-0.0341,-0.0342,-0.0342,-0.0342,0,0.0005,0.0053,0.0108,0.0119,0.015,0.0187,0.0207,0.0233,0.0279,0.0283,0.03,0.0226,0.0189,0.0082,-0.0068,-0.0103,-0.015,-0.0213,-0.0301,-0.0305,-0.0269,-0.0271,-0.0252,-0.0252,-0.0252,-0.0252,-0.0252,0,0.0084,0.0132,0.0146,0.0177,0.0259,0.0251,0.0337,0.0362,0.0399,0.048,0.0381,0.0414,0.0219,0.0143,-0.0005,-0.0137,-0.0112,-0.0264,-0.0298,-0.0273,-0.0275,-0.028,-0.0283,-0.0252,-0.0252,-0.0252,-0.0252,0,0.0148,0.0157,0.0225,0.0271,0.0291,0.0344,0.0411,0.0481,0.0511,0.0607,0.0611,0.0557,0.0466,0.0275,0.0118,-0.0036,-0.0162,-0.0218,-0.0176,-0.0206,-0.0325,-0.0329,-0.0303,-0.0304,-0.0304,-0.0305,-0.0305,0,0.0185,0.0223,0.0286,0.0334,0.036,0.0426,0.0488,0.053,0.0616,0.0714,0.078,0.0712,0.0681,0.0428,0.0159,-0.0082,-0.0135,-0.0215,-0.0273,-0.0289,-0.0326,-0.0328,-0.0331,-0.0238,-0.0238,-0.0237,-0.0237,0,0.0257,0.0274,0.0325,0.0417,0.0488,0.0575,0.0671,0.0758,0.0843,0.0928,0.1044,0.1027,0.0777,0.0526,0.0171,0.0008,-0.018,-0.022,-0.0224,-0.0236,-0.023,-0.0266,-0.027,-0.0236,-0.0236,-0.0236,-0.0236,-0.0236,0.031,0.0353,0.0416,0.0509,0.0606,0.0747,0.0844,0.0955,0.11,0.1248,0.1222,0.1205,0.0908,0.0454,0.0153,-0.0169,-0.0161,-0.0277,-0.0276,-0.0275,-0.0273,-0.0269,-0.0281,-0.0282,-0.0282,-0.0282,-0.0282,0,0.0357,0.0409,0.0506,0.0634,0.0777,0.0802,0.0988,0.1089,0.1275,0.1358,0.1415,0.1161,0.0866,0.0522,0.0045,-0.0239,-0.0265,-0.0325,-0.0298,-0.0296,-0.0295,-0.0295,-0.0308,-0.031,-0.0311,-0.0311,0,0,0.0384,0.0466,0.0512,0.0751,0.087,0.1055,0.1175,0.1314,0.1405,0.1485,0.1463,0.1379,0.0973,0.0625,0.0235,-0.0041,-0.0102,-0.009,-0.0035,0.0046,0.005,-0.023,-0.0222,0,0,0,0,0]}],[{"header":{"parameterUnit":"m.s-1","parameterCategory":2,"la1":30.2991,"la2":30.254,"lo1":-89.0895,"lo2":-89.0444,"dy":0.0017,"dx":0.0017,"nx":28,"ny":28,"refTime":"2024-04-29T21:00:00:Z","depth":"4","parameterNumber":2,"parameterNumberName":"U-component_of_CURRENTS"},"data":[0,0,0,0,0,0,0,0,0,0,0,0,0,0,0,0,0,0,0,0,0,0,0,0,0,0,0,0,0,0,0,0,0,0,0,0,0,0,0,0,0,0,0,0,0,0,0,0,0,0,0,0,0,0,0,0,0,0,0.1191,0.1192,0,0.1245,0.1245,0.1244,0.1295,0.1297,0.1299,0.13,0.1422,0.1424,0.1426,0,0,0,0,0,0,0,0,0,0,0,0,0,0.1101,0.1102,0.1191,0.1192,0.1194,0.1245,0.1245,0.1244,0.1295,0.1297,0.1299,0.1301,0.1422,0.1424,0.1426,0,0,0,0,0,0,0,0,0,0,0,0,0,0.1136,0.1102,0.119,0.1234,0.1239,0.1245,0.1244,0.1244,0.1295,0.1297,0.13,0.1302,0.1421,0.1424,0.1426,0.1392,0,0,0.1434,0.1435,0,0,0,0,0,0,0,0,0.1134,0.1137,0.1226,0.1231,0.1237,0.1276,0.1259,0.1301,0.1294,0.1262,0.13,0.1303,0.1385,0.1391,0.1379,0.1398,0.1403,0.1434,0.1436,0.1437,0.1438,0,0,0,0,0,0,0,0.1131,0.1136,0.1201,0.1227,0.1234,0.1241,0.1248,0.1265,0.1301,0.1265,0.1271,0.1294,0.1387,0.1376,0.1382,0.1405,0.1434,0.1437,0.1438,0.1439,0.1562,0.1564,0,0,0,0,0,0,0.1146,0.1133,0.1199,0.1204,0.1203,0.1242,0.1248,0.1252,0.13,0.1313,0.1292,0.1297,0.137,0.1379,0.1387,0.1484,0.1437,0.1439,0.1441,0.1561,0.1563,0.1565,0,0,0,0,0,0,0.1143,0.115,0.1197,0.118,0.1188,0.1242,0.1244,0.1252,0.1272,0.1322,0.1334,0.1311,0.1373,0.1384,0.1456,0.1485,0.1441,0.1443,0.1559,0.1561,0.1564,0.1592,0,0,0,0,0,0,0.1139,0.1148,0.1159,0.118,0.119,0.1207,0.1243,0.1251,0.1286,0.1293,0.1341,0.1353,0.1375,0.1452,0.1458,0.1487,0.1445,0.1556,0.156,0.1563,0.1589,0.1596,0.1601,0,0,0,0,0,0.1136,0.1143,0.1158,0.1168,0.1201,0.1208,0.1211,0.1251,0.1285,0.128,0.1349,0.1353,0.1477,0.1455,0.1462,0.1493,0.1555,0.1559,0.1563,0.1587,0.1594,0.1601,0,0,0,0,0,0,0.1112,0.1151,0.1168,0.1188,0.1202,0.1221,0.124,0.1259,0.1301,0.134,0.1373,0.1389,0.1466,0.1473,0.1448,0.154,0.1517,0.1522,0.1532,0.154,0.1546,0.157,0.1447,0,0,0,0,0,0.1111,0.1131,0.1155,0.1174,0.1184,0.1211,0.1226,0.1257,0.13,0.132,0.1363,0.1422,0.1476,0.1506,0.1549,0.1588,0.161,0.1614,0.162,0.1625,0.1651,0.1703,0.1716,0.1578,0.1577,0.1577,0,0,0.1109,0.1138,0.1149,0.1172,0.1192,0.1212,0.1224,0.1262,0.1305,0.133,0.1409,0.1447,0.1495,0.1557,0.159,0.1573,0.1675,0.163,0.1633,0.1658,0.1708,0.1722,0.1734,0.158,0.158,0.1579,0,0,0.1118,0.1137,0.1157,0.117,0.1219,0.1235,0.125,0.1286,0.1328,0.1398,0.1442,0.1508,0.1569,0.1614,0.1644,0.1705,0.171,0.1709,0.1753,0.1802,0.1814,0.1825,0.1864,0.1878,0.1705,0.1705,0.1705,0,0.1118,0.1145,0.1161,0.1186,0.1216,0.1247,0.1276,0.1311,0.1376,0.1421,0.1441,0.1568,0.1605,0.1688,0.1721,0.172,0.1744,0.1717,0.181,0.1821,0.1831,0.1869,0.1884,0.1707,0.1707,0.1707,0.1707,0,0.1137,0.1167,0.118,0.1225,0.1249,0.1279,0.1335,0.1379,0.1443,0.1484,0.1591,0.1648,0.1723,0.1736,0.1757,0.1843,0.1834,0.1813,0.1787,0.1847,0.1882,0.1898,0.171,0.1709,0.1709,0.1708,0,0,0.111,0.1179,0.1187,0.1219,0.128,0.1299,0.1381,0.1446,0.1515,0.1587,0.1671,0.177,0.18,0.1839,0.1859,0.1905,0.1997,0.1897,0.1898,0.193,0.2106,0.1992,0.1997,0.1986,0.1989,0.1992,0.2098,0,0.112,0.1171,0.1213,0.127,0.1295,0.1357,0.1422,0.15,0.1578,0.1663,0.1741,0.1835,0.1837,0.1889,0.1936,0.1992,0.2041,0.1971,0.2051,0.2054,0.194,0.2012,0.2001,0.2109,0.2113,0.2115,0.2117,0,0.1123,0.1159,0.1215,0.13,0.132,0.1368,0.1482,0.1549,0.1669,0.1741,0.1837,0.1896,0.2004,0.1989,0.2117,0.2071,0.2107,0.2134,0.2137,0.2037,0.1968,0.2042,0.2145,0.2142,0.214,0.2139,0.2137,0,0.1087,0.1164,0.1214,0.1238,0.1332,0.1393,0.1457,0.1575,0.1656,0.18,0.1878,0.1987,0.2072,0.2136,0.2216,0.2177,0.2339,0.228,0.2209,0.2201,0.2257,0.2244,0.2374,0.2374,0.2374,0.2373,0.2373,0,0.1071,0.1112,0.1206,0.1227,0.1297,0.1384,0.1486,0.1569,0.1712,0.18,0.192,0.2008,0.2118,0.2216,0.2255,0.2292,0.2376,0.2246,0.223,0.2264,0.2252,0.2267,0.2253,0.2377,0.2376,0.2376,0.2375,0,0.1023,0.1083,0.1139,0.1244,0.128,0.1336,0.1487,0.1555,0.1712,0.1834,0.1893,0.206,0.2184,0.2281,0.2396,0.2338,0.2387,0.2377,0.2435,0.2416,0.22,0.2186,0.229,0.2287,0.2284,0.2282,0.228,0,0.1001,0.1025,0.1128,0.1157,0.1211,0.1308,0.1364,0.1529,0.1607,0.1846,0.1888,0.2077,0.2168,0.2249,0.2345,0.2417,0.239,0.2385,0.2269,0.2222,0.2197,0.2187,0.2178,0.2276,0.2276,0.2275,0.2275,0,0.0947,0.0997,0.1037,0.1094,0.1156,0.1224,0.133,0.1382,0.1571,0.1727,0.1859,0.1956,0.2088,0.2175,0.2262,0.2299,0.2367,0.2358,0.2361,0.2252,0.2207,0.2182,0.2176,0.2266,0.2267,0.2268,0.2268,0,0.0905,0.0916,0.0971,0.1019,0.1087,0.1131,0.1196,0.1299,0.1405,0.1663,0.1697,0.1906,0.2057,0.2118,0.2198,0.2234,0.2184,0.209,0.2106,0.2117,0.2013,0.1928,0.1912,0,0,0,0,0,0.0855,0.0859,0.089,0.0938,0.1005,0.1056,0.1166,0.1241,0.1416,0.1465,0.1589,0.1713,0.1851,0.1958,0.1963,0.2115,0.2183,0.2109,0.2078,0.2218,0.2228,0.2122,0,0,0,0,0,0,0.0817,0.0843,0.0856,0.0866,0.0894,0.0961,0.1032,0.1143,0.1187,0.1373,0.1461,0.1608,0.1769,0.1844,0.1934,0.1966,0.1909,0.2239,0.2234,0.2212,0.2221,0.2229,0.2124,0,0,0,0,0]},{"header":{"parameterUnit":"m.s-1","parameterCategory":2,"la1":30.2991,"la2":30.254,"lo1":-89.0895,"lo2":-89.0444,"dy":0.0017,"dx":0.0017,"nx":28,"ny":28,"refTime":"2024-04-29T21:00:00:Z","depth":"4","parameterNumber":3,"parameterNumberName":"V-component_of_CURRENTS"},"data":[0,0,0,0,0,0,0,0,0,0,0,0,0,0,0,0,0,0,0,0,0,0,0,0,0,0,0,0,0,0,0,0,0,0,0,0,0,0,0,0,0,0,0,0,0,0,0,0,0,0,0,0,0,0,0,0,0,0,0.0296,0.0295,0,0.0226,0.0225,0.0225,0.0183,0.0182,0.0182,0.0182,0.0088,0.0086,0.0084,0,0,0,0,0,0,0,0,0,0,0,0,0,0.0302,0.0303,0.0296,0.0295,0.0294,0.0226,0.0225,0.0224,0.0183,0.0182,0.0182,0.0181,0.0089,0.0086,0.0084,0,0,0,0,0,0,0,0,0,0,0,0,0,0.0275,0.0303,0.0297,0.0263,0.026,0.0226,0.0225,0.0224,0.0183,0.0182,0.0182,0.0181,0.009,0.0087,0.0084,0.0076,0,0,0.0074,0.0072,0,0,0,0,0,0,0,0,0.0277,0.0275,0.0269,0.0266,0.0261,0.021,0.0192,0.0173,0.0183,0.0215,0.0182,0.0181,0.0126,0.012,0.0111,0.0072,0.0068,0.0074,0.0072,0.007,0.0069,0,0,0,0,0,0,0,0.0279,0.0277,0.0271,0.0268,0.0263,0.022,0.0216,0.0188,0.0176,0.0212,0.0208,0.0196,0.0124,0.0115,0.0109,0.0067,0.0074,0.0071,0.0069,0.0068,0.0054,0.0055,0,0,0,0,0,0,0.0288,0.028,0.0273,0.0269,0.0265,0.022,0.0217,0.0229,0.0177,0.0167,0.0197,0.0195,0.012,0.0113,0.0105,0.0124,0.007,0.0067,0.0066,0.0052,0.0054,0.0056,0,0,0,0,0,0,0.0289,0.0289,0.0276,0.0269,0.0264,0.0221,0.0235,0.0228,0.0229,0.0165,0.0156,0.0206,0.012,0.011,0.0091,0.0118,0.0066,0.0063,0.005,0.0053,0.0055,0.0141,0,0,0,0,0,0,0.029,0.0291,0.0306,0.0271,0.0264,0.0272,0.0235,0.0227,0.0221,0.0218,0.017,0.016,0.0118,0.0096,0.0088,0.0113,0.0061,0.0049,0.0052,0.0054,0.0136,0.0146,0.0154,0,0,0,0,0,0.0291,0.0312,0.0308,0.0307,0.0287,0.0273,0.0267,0.0234,0.0222,0.0232,0.0196,0.0162,0.0109,0.0095,0.0085,0.011,0.0047,0.0051,0.0054,0.0132,0.0144,0.0154,0,0,0,0,0,0,0.032,0.0308,0.0303,0.032,0.0306,0.0265,0.0265,0.0249,0.023,0.0225,0.0172,0.016,0.015,0.0125,0.011,0.0117,0.0077,0.0078,0.014,0.015,0.0159,0.0142,0.0058,0,0,0,0,0,0.0336,0.035,0.033,0.0344,0.0341,0.0311,0.0301,0.0283,0.0256,0.0247,0.0215,0.0184,0.0156,0.0149,0.0115,0.0122,0.007,0.0136,0.0145,0.0153,0.0134,0.0085,0.0087,0.0067,0.0067,0.0067,0,0,0.0345,0.0343,0.0349,0.0351,0.0336,0.034,0.0305,0.0299,0.0301,0.0239,0.0239,0.0205,0.0162,0.0159,0.0156,0.0144,0.0137,0.0157,0.0164,0.014,0.0089,0.009,0.0092,0.0069,0.0069,0.0069,0,0,0.0366,0.038,0.0394,0.0392,0.0379,0.0366,0.0373,0.0349,0.0341,0.0334,0.029,0.027,0.0242,0.0212,0.0193,0.0235,0.0175,0.0246,0.0286,0.0241,0.0241,0.024,0.0194,0.0189,0.0263,0.0263,0.0264,0,0.0377,0.0399,0.0395,0.0406,0.0405,0.0387,0.0399,0.0392,0.0365,0.0357,0.0345,0.029,0.0259,0.0242,0.026,0.0251,0.0217,0.0248,0.025,0.0248,0.0246,0.0199,0.0191,0.0268,0.0267,0.0267,0.0267,0,0.0399,0.0422,0.0431,0.0447,0.0452,0.0459,0.045,0.0454,0.0444,0.0427,0.0408,0.0361,0.0326,0.0332,0.0306,0.0295,0.0272,0.0256,0.0218,0.0253,0.0201,0.0192,0.0274,0.0273,0.0271,0.027,0,0,0.0408,0.0441,0.0444,0.0464,0.0475,0.0481,0.0494,0.0494,0.0497,0.0477,0.0469,0.0433,0.0406,0.0382,0.0356,0.0328,0.0297,0.03,0.0296,0.0246,0.0197,0.0183,0.0171,0.0287,0.0285,0.0284,0.0172,0,0.0425,0.0464,0.0472,0.051,0.0533,0.0528,0.0544,0.0542,0.0532,0.0525,0.048,0.0462,0.043,0.042,0.0385,0.0311,0.0275,0.0328,0.0176,0.0171,0.0147,0.0161,0.028,0.0165,0.0163,0.0162,0.016,0,0.0437,0.0468,0.051,0.0552,0.056,0.058,0.0598,0.061,0.0594,0.0578,0.0547,0.0511,0.0464,0.0436,0.0312,0.0351,0.0276,0.0219,0.0213,0.0155,0.014,0.0118,0.0143,0.0144,0.0146,0.0147,0.0148,0,0.0445,0.0491,0.0532,0.0545,0.0588,0.0603,0.0626,0.0626,0.0644,0.0614,0.0611,0.054,0.0508,0.0404,0.029,0.0301,0.0146,0.0143,0.0053,0.0051,0.0057,0.0058,0.0042,0.0042,0.0042,0.0042,0.0043,0,0.0457,0.0488,0.0542,0.0565,0.0619,0.0634,0.068,0.0677,0.0684,0.0706,0.0646,0.0629,0.05,0.0406,0.0293,0.0142,0.0141,0.0044,0.0017,0.0101,0.0108,0.0051,0.0054,0.0038,0.0039,0.004,0.0041,0,0.0455,0.0487,0.0543,0.0603,0.0628,0.0668,0.0736,0.0763,0.0756,0.0775,0.077,0.0692,0.0563,0.0421,0.0245,0.015,0.0005,-0.0049,0.0046,0.0029,-0.0061,-0.0052,-0.0164,-0.0165,-0.0166,-0.0168,-0.0168,0,0.0459,0.0489,0.0577,0.062,0.0652,0.0719,0.0768,0.0797,0.0826,0.0811,0.0817,0.0711,0.0639,0.0378,0.0221,-0.0012,-0.004,-0.012,-0.0091,-0.007,-0.0084,-0.0073,-0.0063,-0.017,-0.0171,-0.0171,-0.0171,0,0.0471,0.0503,0.0552,0.0644,0.071,0.0791,0.0857,0.0882,0.0907,0.0904,0.085,0.0723,0.0573,0.0378,0.0194,0.0031,-0.007,-0.0134,-0.0132,-0.0106,-0.0079,-0.009,-0.0079,-0.0176,-0.0175,-0.0175,-0.0175,0,0.0483,0.052,0.0588,0.0666,0.0752,0.083,0.0871,0.0904,0.0935,0.0914,0.0892,0.0735,0.0648,0.0398,0.023,0.0064,0.0026,-0.0023,-0.0028,-0.0025,0.005,0.0107,0.0034,0,0,0,0,0,0.0494,0.0537,0.0606,0.0693,0.0773,0.0827,0.0915,0.0945,0.097,0.0939,0.0918,0.0779,0.0529,0.0423,0.0254,0.0196,-0.001,-0.0008,-0.007,-0.0201,-0.0195,-0.0131,0,0,0,0,0,0,0.0503,0.0565,0.0603,0.0698,0.0753,0.085,0.0911,0.0932,0.0916,0.091,0.0784,0.0725,0.0485,0.0619,0.0244,0.0194,0.0129,-0.0122,-0.0126,-0.0204,-0.0199,-0.0195,-0.0127,0,0,0,0,0]}]]